AEROCUBE 7B (OCSD B)

Last updated on Sun Aug 07 2022 01:03:42 GMT+0100 (British Summer Time)

1 43042U 17071F 22217.68371518 .10937713 12430-4 51064-3 0 9996 2 43042 51.6203 141.7237 0006679 244.6945 115.3391 16.42832996263553

Satellite not in orbit